Location: Miss�
(46.9484°N, 0.1922°W)
Time: 04:02:41
(UTC+00:00)

Cosmos 1610 Rocket - Pass Details

Date: 02 March 2021
Orbit: 953 x 1002 km, 82.9° (Epoch: 17 April)

Event Time Altitude Azimuth Distance (km) Brightness Sun altitude
Rises 18:56:26 0° 184° (S) 3,632 7.5 -12.5°
Reaches altitude 10° 18:58:55 10° 184° (S) 2,696 6.8 -12.9°
Maximum altitude 19:05:06 84° 97° (E) 985 4.5 -13.9°
Drops below altitude 10° 19:11:24 10° 10° (N) 2,748 6.8 -15.0°
Sets 19:13:57 0° 10° (N) 3,708 7.5 -15.4°
